User: anonymous   Login
Location: Estes Par
(40.3770°N, 105.5210°W)
Time: 17:52:00
(UTC-06:00)
Language:

Max Valier Satellite - Orbit

View from above orbital plane
View from above orbital plane
View from above satellite
View from above satellite

Ground track
Ground track

The orbit data is extracted from the following two-line orbital elements,

1 42778U 17036P   19289.76953556  .00000814  00000-0  38400-4 0  9992
2 42778  97.3412 344.7138 0013097 155.9485 204.2366 15.22184320128500
Epoch (UTC): 16 October 2019 18:28:07
Eccentricity: 0.0013097
inclination: 97.3412°
perigee height: 490 km
apogee height: 508 km
right ascension of ascending node: 344.7138°
argument of perigee: 155.9485°
revolutions per day: 15.22184320
mean anomaly at epoch: 204.2366°
orbit number at epoch: 12850

The dashed part of the orbit path shows where the satellite is in the earth's shadow,  

DLR